Regional Weather Roundup
Issued by NWS

Home | Current Version | Previous Version | Graphics & Text | Print | Product List | Glossary On
Versions: 1 2 3 4 5 6 7 8 9 10 11 12 13 14 15 16 17 18 19 20 21 22 23 24 25 26 27 28 29 30 31 32 33 34 35 36 37 38 39 40 41 42 43 44 45 46 47 48 49 50
000
ASUS44 KMEG 250010
RWRTN
TENNESSEE HOURLY STATE WEATHER ROUNDUP
NATIONAL WEATHER SERVICE MEMPHIS TN
700 PM CDT MON APR 24 2017

TNZ002-004-019-021-049-052-054-088>092-250100-
WEST TENNESSEE

CITY           SKY/WX    TMP DP  RH WIND       PRES   REMARKS
MEMPHIS INTL   PTCLDY    72  53  51 CALM      29.75S
NWS MEMPHIS      N/A     71 N/A N/A MISG        N/A
JACKSON        CLEAR     67  57  70 S6        29.76F
DYERSBURG      CLEAR     72  54  53 SE8       29.74F
SOMERVILLE     PTCLDY    68  55  64 CALM      29.75S
UNION CITY     CLEAR     72  54  53 E5        29.72F
BOLIVAR        PTCLDY    64  57  77 E5        29.76F
PARIS          PTCLDY    66  54  63 SE6       29.75F
HUNTINGDON     PTCLDY    68  57  68 SE5       29.74F
LEXINGTON      CLEAR     64  55  72 CALM      29.76F
SAVANNAH       CLEAR     61  55  82 CALM      29.77F
$$

TNZ008-025-027-028-033-062-065-066-250100-
NORTH MIDDLE TENNESSEE

CITY           SKY/WX    TMP DP  RH WIND       PRES   REMARKS
NASHVILLE      MOCLDY    66  54  65 E3        29.77F
PORTLAND       MOCLDY    66  57  72 CALM      29.76F
CLARKSVILLE    CLOUDY    68  54  60 S3        29.76F
SMYRNA         CLOUDY    64  57  78 NW5       29.78F
COOKEVILLE     PTCLDY    64  55  72 NW3       29.75F
GALLATIN       CLOUDY    66  57  72 CALM      29.79F
CROSSVILLE     PTCLDY    62  52  69 N6        29.78S
$$

TNZ061-075-076-078-094-096-097-250100-
SOUTH MIDDLE TENNESSEE

CITY           SKY/WX    TMP DP  RH WIND       PRES   REMARKS
FAYETTEVILLE   CLOUDY    61  57  88 CALM      29.78S
TULLAHOMA      CLOUDY    61  55  82 CALM      29.79S
WINCHESTER     PTCLDY    59  55  88 CALM      29.78F
MCMINNVILLE    PTCLDY    63  57  82 CALM      29.77F
COLUMBIA       CLOUDY    63  63 100 CALM      29.77F
SHELBYVILLE    CLOUDY    64  57  77 CALM      29.79S
$$

TNZ017-018-042-046-047-250100-
NORTHEAST TENNESSEE

CITY           SKY/WX    TMP DP  RH WIND       PRES   REMARKS
TRI CITIES     MOCLDY    57  51  80 NE6       29.80F
ELIZABETHTON   CLOUDY    59  54  82 CALM      29.79S
$$

TNZ012-013-036-069-073-074-250100-
CENTRAL EAST TENNESSEE

CITY           SKY/WX    TMP DP  RH WIND       PRES   REMARKS
KNOXVILLE      MOCLDY    64  54  69 E9        29.73S
OAK RIDGE      CLOUDY    67  53  61 E6        29.76R
DOWNTOWN KNOXV MOCLDY    64  55  72 E7        29.75S
GATLINBURG     MOCLDY    63  54  72 CALM      29.75S
MORRISTOWN     PTCLDY    63  54  72 E8G15     29.75F
JACKSBORO      CLOUDY    66  55  68 VRB5      29.78S
$$

TNZ083-085-099-250100-
SOUTHEAST TENNESSEE

CITY           SKY/WX    TMP DP  RH WIND       PRES   REMARKS
CHATTANOOGA    PTCLDY    66  55  67 N7        29.75S
$$

SKY/WX REPORTED AS FAIR MEANS FEW OR NO CLOUDS BELOW
12 THOUSAND FEET.




USA.gov is the U.S. government's official web portal to all federal, state and local government web resources and services.